When you browse on this site, cookies collect data to enhance your experience and personalize the content and advertising you see.
Visit our Privacy Policy to learn more. By continuing to use the site, you agree to this use of cookies and data.

Stündliche Wetter Troickiy

Heute, 7 Juli, Dienstag

Zeit Temperatur Niederschläge Wind Luftdruck Luftfeuchtigkeit
00:00 +21°C° 0 mm 1 m/S 740 mmHg 85%
01:00 +21°C° 0 mm 1 m/S 740 mmHg 86%
02:00 +20°C° 0 mm 1 m/S 740 mmHg 88%
03:00 +19°C° 0 mm 2 m/S 740 mmHg 91%
04:00 +20°C° 0 mm 2 m/S 740 mmHg 92%
05:00 +20°C° 0 mm 2 m/S 739 mmHg 92%
06:00 +21°C° 0 mm 2 m/S 739 mmHg 92%
07:00 +22°C° 0 mm 3 m/S 739 mmHg 89%
08:00 +25°C° 0 mm 3 m/S 739 mmHg 86%
09:00 +27°C° 0 mm 3 m/S 739 mmHg 83%
10:00 +28°C° 1 mm 3 m/S 739 mmHg 76%
11:00 +30°C° 1 mm 3 m/S 739 mmHg 70%
12:00 +31°C° 1 mm 3 m/S 739 mmHg 63%
13:00 +32°C° 0.4 mm 4 m/S 738 mmHg 65%
14:00 +32°C° 0.4 mm 4 m/S 738 mmHg 67%
15:00 +32°C° 0.4 mm 5 m/S 738 mmHg 68%
16:00 +30°C° 0.5 mm 4 m/S 737 mmHg 72%
17:00 +30°C° 0.5 mm 4 m/S 737 mmHg 76%
18:00 +29°C° 0.5 mm 4 m/S 737 mmHg 79%
19:00 +28°C° 0.1 mm 4 m/S 736 mmHg 81%
20:00 +27°C° 0.1 mm 4 m/S 736 mmHg 83%
21:00 +26°C° 0.1 mm 4 m/S 736 mmHg 85%
22:00 +25°C° 0 mm 4 m/S 736 mmHg 82%
23:00 +23°C° 0 mm 4 m/S 736 mmHg 79%

Morgen, 8 Juli, Mittwoch

Zeit Temperatur Niederschläge Wind Luftdruck Luftfeuchtigkeit
00:00 +22°C° 0 mm 4 m/S 735 mmHg 76%
01:00 +22°C° 0 mm 3 m/S 735 mmHg 76%
02:00 +21°C° 0 mm 3 m/S 735 mmHg 77%
03:00 +20°C° 0 mm 3 m/S 735 mmHg 77%
04:00 +21°C° 0 mm 3 m/S 735 mmHg 78%
05:00 +21°C° 0 mm 3 m/S 735 mmHg 79%
06:00 +21°C° 0 mm 3 m/S 734 mmHg 81%
07:00 +22°C° 0 mm 3 m/S 734 mmHg 79%
08:00 +24°C° 0 mm 3 m/S 735 mmHg 78%
09:00 +25°C° 0 mm 3 m/S 735 mmHg 77%
10:00 +26°C° 0 mm 3 m/S 735 mmHg 75%
11:00 +27°C° 0 mm 3 m/S 735 mmHg 73%
12:00 +28°C° 0 mm 3 m/S 736 mmHg 71%
13:00 +27°C° 0.2 mm 3 m/S 736 mmHg 74%
14:00 +27°C° 0.2 mm 3 m/S 736 mmHg 77%
15:00 +26°C° 0.2 mm 3 m/S 736 mmHg 80%
16:00 +25°C° 2.8 mm 3 m/S 736 mmHg 85%
17:00 +22°C° 2.8 mm 4 m/S 737 mmHg 90%
18:00 +20°C° 2.8 mm 5 m/S 737 mmHg 95%
19:00 +20°C° 2.1 mm 5 m/S 737 mmHg 96%
20:00 +19°C° 2.1 mm 4 m/S 738 mmHg 96%
21:00 +19°C° 2.1 mm 4 m/S 738 mmHg 96%
22:00 +18°C° 0.7 mm 4 m/S 738 mmHg 96%
23:00 +16°C° 0.7 mm 5 m/S 738 mmHg 95%

übermorgen, 9 Juli, Donnerstag

Zeit Temperatur Niederschläge Wind Luftdruck Luftfeuchtigkeit
00:00 +16°C° 0.7 mm 5 m/S 739 mmHg 95%
01:00 +15°C° 0.1 mm 5 m/S 739 mmHg 94%
02:00 +15°C° 0.1 mm 5 m/S 739 mmHg 94%
03:00 +14°C° 0.1 mm 5 m/S 739 mmHg 94%
04:00 +14°C° 0 mm 5 m/S 739 mmHg 93%
05:00 +14°C° 0 mm 5 m/S 739 mmHg 93%
06:00 +14°C° 0 mm 5 m/S 739 mmHg 93%
07:00 +14°C° 0 mm 5 m/S 740 mmHg 90%
08:00 +15°C° 0 mm 5 m/S 740 mmHg 87%
09:00 +16°C° 0 mm 5 m/S 740 mmHg 84%
10:00 +17°C° 0 mm 5 m/S 741 mmHg 79%
11:00 +19°C° 0 mm 5 m/S 741 mmHg 74%
12:00 +20°C° 0 mm 5 m/S 741 mmHg 70%
13:00 +21°C° 0.1 mm 5 m/S 742 mmHg 69%
14:00 +21°C° 0.1 mm 5 m/S 742 mmHg 68%
15:00 +22°C° 0.1 mm 4 m/S 742 mmHg 67%
16:00 +22°C° 0.1 mm 4 m/S 742 mmHg 69%
17:00 +21°C° 0.1 mm 4 m/S 742 mmHg 70%
18:00 +21°C° 0.1 mm 4 m/S 743 mmHg 72%
19:00 +19°C° 0 mm 3 m/S 743 mmHg 76%
20:00 +18°C° 0 mm 3 m/S 743 mmHg 80%
21:00 +16°C° 0 mm 3 m/S 743 mmHg 84%
22:00 +14°C° 0 mm 3 m/S 744 mmHg 86%
23:00 +14°C° 0 mm 3 m/S 744 mmHg 87%

10 Juli, Freitag

Zeit Temperatur Niederschläge Wind Luftdruck Luftfeuchtigkeit
00:00 +13°C° 0 mm 3 m/S 744 mmHg 89%
01:00 +13°C° 0 mm 3 m/S 745 mmHg 90%
02:00 +12°C° 0 mm 3 m/S 745 mmHg 91%
03:00 +12°C° 0 mm 3 m/S 745 mmHg 93%
04:00 +12°C° 0 mm 3 m/S 745 mmHg 92%
05:00 +12°C° 0 mm 3 m/S 746 mmHg 90%
06:00 +13°C° 0 mm 3 m/S 746 mmHg 89%
07:00 +14°C° 0 mm 3 m/S 746 mmHg 84%
08:00 +17°C° 0 mm 3 m/S 747 mmHg 79%
09:00 +18°C° 0 mm 3 m/S 747 mmHg 75%
10:00 +19°C° 0 mm 3 m/S 747 mmHg 70%
11:00 +20°C° 0 mm 3 m/S 747 mmHg 66%
12:00 +21°C° 0 mm 3 m/S 748 mmHg 62%
13:00 +21°C° 0 mm 3 m/S 748 mmHg 60%
14:00 +22°C° 0 mm 3 m/S 748 mmHg 59%
15:00 +22°C° 0 mm 3 m/S 748 mmHg 57%
16:00 +23°C° 0 mm 2 m/S 748 mmHg 60%
17:00 +23°C° 0 mm 2 m/S 748 mmHg 63%
18:00 +23°C° 0 mm 2 m/S 748 mmHg 65%
19:00 +21°C° 0 mm 1 m/S 748 mmHg 69%
20:00 +19°C° 0 mm 1 m/S 748 mmHg 72%
21:00 +16°C° 0 mm 1 m/S 748 mmHg 76%
22:00 +16°C° 0 mm 1 m/S 749 mmHg 77%
23:00 +15°C° 0 mm 1 m/S 749 mmHg 77%

11 Juli, Samstag

Zeit Temperatur Niederschläge Wind Luftdruck Luftfeuchtigkeit
00:00 +15°C° 0 mm 1 m/S 749 mmHg 78%
01:00 +14°C° 0 mm 1 m/S 749 mmHg 79%
02:00 +14°C° 0 mm 2 m/S 749 mmHg 80%
03:00 +14°C° 0 mm 2 m/S 749 mmHg 81%
04:00 +14°C° 0 mm 2 m/S 749 mmHg 82%
05:00 +15°C° 0 mm 2 m/S 749 mmHg 83%
06:00 +15°C° 0 mm 2 m/S 749 mmHg 83%
07:00 +17°C° 0 mm 2 m/S 749 mmHg 79%
08:00 +19°C° 0 mm 2 m/S 749 mmHg 75%
09:00 +20°C° 0 mm 3 m/S 749 mmHg 71%
10:00 +21°C° 0 mm 3 m/S 749 mmHg 68%
11:00 +22°C° 0 mm 3 m/S 749 mmHg 65%
12:00 +23°C° 0 mm 4 m/S 749 mmHg 62%
13:00 +23°C° 0 mm 4 m/S 749 mmHg 62%
14:00 +25°C° 0 mm 3 m/S 749 mmHg 62%
15:00 +25°C° 0 mm 3 m/S 748 mmHg 61%
16:00 +25°C° 0 mm 3 m/S 748 mmHg 64%
17:00 +24°C° 0 mm 3 m/S 748 mmHg 67%
18:00 +24°C° 0 mm 3 m/S 747 mmHg 71%
19:00 +22°C° 0 mm 3 m/S 747 mmHg 73%
20:00 +20°C° 0 mm 2 m/S 747 mmHg 76%
21:00 +18°C° 0 mm 2 m/S 747 mmHg 79%
22:00 +18°C° 0 mm 2 m/S 747 mmHg 80%
23:00 +17°C° 0 mm 3 m/S 747 mmHg 80%

12 Juli, Sonntag

Zeit Temperatur Niederschläge Wind Luftdruck Luftfeuchtigkeit
00:00 +17°C° 0 mm 3 m/S 747 mmHg 81%
01:00 +17°C° 0 mm 3 m/S 747 mmHg 81%
02:00 +16°C° 0 mm 3 m/S 747 mmHg 82%
03:00 +16°C° 0 mm 3 m/S 747 mmHg 82%
04:00 +16°C° 0 mm 2 m/S 747 mmHg 83%
05:00 +17°C° 0 mm 2 m/S 747 mmHg 83%
06:00 +17°C° 0 mm 2 m/S 747 mmHg 84%
07:00 +19°C° 0 mm 2 m/S 747 mmHg 80%
08:00 +20°C° 0 mm 2 m/S 747 mmHg 76%
09:00 +23°C° 0 mm 2 m/S 747 mmHg 73%
10:00 +24°C° 0 mm 1 m/S 747 mmHg 71%
11:00 +25°C° 0 mm 1 m/S 746 mmHg 68%
12:00 +26°C° 0 mm 1 m/S 746 mmHg 66%
13:00 +26°C° 0.4 mm 1 m/S 746 mmHg 67%
14:00 +26°C° 0.4 mm 1 m/S 746 mmHg 67%
15:00 +26°C° 0.4 mm 2 m/S 745 mmHg 68%
16:00 +26°C° 0.5 mm 1 m/S 745 mmHg 69%
17:00 +26°C° 0.5 mm 1 m/S 745 mmHg 70%
18:00 +26°C° 0.5 mm 1 m/S 745 mmHg 71%
19:00 +24°C° 0.2 mm 1 m/S 745 mmHg 75%
20:00 +23°C° 0.2 mm 1 m/S 744 mmHg 80%
21:00 +21°C° 0.2 mm 1 m/S 744 mmHg 84%
22:00 +21°C° 0 mm 1 m/S 744 mmHg 84%
23:00 +21°C° 0 mm 1 m/S 744 mmHg 85%
Mehr zeigen